Wetterdaten: Donnerstag, 07.01.2016
Datum Zeit Temp. A. Feuchte A. Luftdruck Regen Wind Richtung Richtung Sonnenschein ET UV Solar Taupunkt Windchill Windben Empfang
07.01.2016 00:00 -6,6 C 95 % 1004,2 hPa 0,0 l/m 0,3 km/h (0 Bft) W 277 0 min 0,000 mm 0,0 UV-I 0 W/m -7,3 C -6,6 C 1,6 km/h (1 Bft) 100,00 %
07.01.2016 00:05 -6,6 C 95 % 1004,2 hPa 0,0 l/m 0,2 km/h (0 Bft) W 277 0 min 0,000 mm 0,0 UV-I 0 W/m -7,3 C -6,6 C 1,6 km/h (1 Bft) 96,40 %
07.01.2016 00:10 -6,7 C 95 % 1004,2 hPa 0,0 l/m 0,0 km/h (0 Bft) W 277 0 min 0,000 mm 0,0 UV-I 0 W/m -7,4 C -6,7 C 0,0 km/h (0 Bft) 99,17 %
07.01.2016 00:15 -6,7 C 94 % 1004,2 hPa 0,0 l/m 0,6 km/h (0 Bft) W 277 0 min 0,000 mm 0,0 UV-I 0 W/m -7,5 C -6,7 C 1,6 km/h (1 Bft) 99,15 %
07.01.2016 00:20 -6,8 C 95 % 1004,1 hPa 0,0 l/m 0,6 km/h (0 Bft) W 277 0 min 0,000 mm 0,0 UV-I 0 W/m -7,5 C -6,8 C 1,6 km/h (1 Bft) 98,26 %
07.01.2016 00:25 -6,8 C 95 % 1004,1 hPa 0,0 l/m 1,2 km/h (1 Bft) W 277 0 min 0,000 mm 0,0 UV-I 0 W/m -7,5 C -6,8 C 3,2 km/h (1 Bft) 95,04 %
07.01.2016 00:30 -6,9 C 95 % 1004,0 hPa 0,0 l/m 0,8 km/h (0 Bft) SW 227 0 min 0,000 mm 0,0 UV-I 0 W/m -7,6 C -6,9 C 3,2 km/h (1 Bft) 96,30 %
07.01.2016 00:35 -6,9 C 95 % 1004,4 hPa 0,0 l/m 3,0 km/h (1 Bft) W-NW 286 0 min 0,000 mm 0,0 UV-I 0 W/m -7,6 C -6,9 C 6,4 km/h (2 Bft) 96,61 %
07.01.2016 00:40 -6,8 C 95 % 1004,3 hPa 0,0 l/m 2,8 km/h (1 Bft) S-SW 210 0 min 0,000 mm 0,0 UV-I 0 W/m -7,5 C -6,8 C 4,8 km/h (1 Bft) 98,31 %
07.01.2016 00:45 -6,7 C 95 % 1004,3 hPa 0,0 l/m 3,3 km/h (1 Bft) SW 225 0 min 0,000 mm 0,0 UV-I 0 W/m -7,4 C -6,7 C 4,8 km/h (1 Bft) 96,75 %
07.01.2016 00:50 -6,6 C 95 % 1004,3 hPa 0,0 l/m 1,6 km/h (1 Bft) W-SW 249 0 min 0,000 mm 0,0 UV-I 0 W/m -7,3 C -6,6 C 4,8 km/h (1 Bft) 97,39 %
07.01.2016 00:55 -6,5 C 95 % 1004,3 hPa 0,0 l/m 3,6 km/h (1 Bft) SW 225 0 min 0,000 mm 0,0 UV-I 0 W/m -7,2 C -6,5 C 6,4 km/h (2 Bft) 99,12 %
07.01.2016 01:00 -6,4 C 95 % 1004,4 hPa 0,0 l/m 2,0 km/h (1 Bft) W-NW 290 0 min 0,000 mm 0,0 UV-I 0 W/m -7,1 C -6,4 C 4,8 km/h (1 Bft) 98,35 %
07.01.2016 01:05 -6,3 C 95 % 1004,1 hPa 0,0 l/m 0,7 km/h (0 Bft) W-NW 302 0 min 0,000 mm 0,0 UV-I 0 W/m -7,0 C -6,3 C 4,8 km/h (1 Bft) 100,00 %
07.01.2016 01:10 -6,3 C 95 % 1004,1 hPa 0,0 l/m 0,3 km/h (0 Bft) W-NW 303 0 min 0,000 mm 0,0 UV-I 0 W/m -7,0 C -6,3 C 1,6 km/h (1 Bft) 100,00 %
07.01.2016 01:15 -6,3 C 95 % 1004,1 hPa 0,0 l/m 2,8 km/h (1 Bft) O-NO 70 0 min 0,000 mm 0,0 UV-I 0 W/m -7,0 C -6,3 C 4,8 km/h (1 Bft) 98,26 %
07.01.2016 01:20 -6,3 C 95 % 1004,2 hPa 0,0 l/m 1,5 km/h (1 Bft) SO 134 0 min 0,000 mm 0,0 UV-I 0 W/m -7,0 C -6,3 C 3,2 km/h (1 Bft) 99,17 %
07.01.2016 01:25 -6,2 C 95 % 1004,3 hPa 0,0 l/m 2,5 km/h (1 Bft) S 181 0 min 0,000 mm 0,0 UV-I 0 W/m -6,9 C -6,2 C 6,4 km/h (2 Bft) 97,37 %
07.01.2016 01:30 -6,2 C 95 % 1004,3 hPa 0,0 l/m 4,5 km/h (1 Bft) S-SW 193 0 min 0,000 mm 0,0 UV-I 0 W/m -6,9 C -6,2 C 8,0 km/h (2 Bft) 100,00 %
07.01.2016 01:35 -6,1 C 95 % 1004,4 hPa 0,0 l/m 5,4 km/h (1 Bft) S-SW 207 0 min 0,000 mm 0,0 UV-I 0 W/m -6,8 C -6,1 C 8,0 km/h (2 Bft) 99,10 %
07.01.2016 01:40 -6,1 C 95 % 1004,6 hPa 0,0 l/m 6,1 km/h (2 Bft) S-SW 213 0 min 0,000 mm 0,0 UV-I 0 W/m -6,8 C -6,1 C 9,7 km/h (2 Bft) 99,19 %
07.01.2016 01:45 -6,0 C 95 % 1004,6 hPa 0,0 l/m 4,7 km/h (1 Bft) S-SW 202 0 min 0,000 mm 0,0 UV-I 0 W/m -6,7 C -6,0 C 6,4 km/h (2 Bft) 100,00 %
07.01.2016 01:50 -5,9 C 95 % 1004,6 hPa 0,0 l/m 3,8 km/h (1 Bft) S 182 0 min 0,000 mm 0,0 UV-I 0 W/m -6,6 C -5,9 C 6,4 km/h (2 Bft) 100,00 %
07.01.2016 01:55 -5,8 C 96 % 1004,6 hPa 0,0 l/m 3,7 km/h (1 Bft) S 188 0 min 0,000 mm 0,0 UV-I 0 W/m -6,3 C -5,8 C 4,8 km/h (1 Bft) 100,00 %
07.01.2016 02:00 -5,7 C 95 % 1004,5 hPa 0,0 l/m 2,3 km/h (1 Bft) S 179 0 min 0,000 mm 0,0 UV-I 0 W/m -6,4 C -5,7 C 4,8 km/h (1 Bft) 98,35 %
07.01.2016 02:05 -5,6 C 96 % 1004,6 hPa 0,0 l/m 1,4 km/h (1 Bft) S 179 0 min 0,000 mm 0,0 UV-I 0 W/m -6,1 C -5,6 C 3,2 km/h (1 Bft) 98,20 %
07.01.2016 02:10 -5,5 C 96 % 1004,6 hPa 0,0 l/m 3,7 km/h (1 Bft) S-SW 192 0 min 0,000 mm 0,0 UV-I 0 W/m -6,0 C -5,5 C 6,4 km/h (2 Bft) 100,00 %
07.01.2016 02:15 -5,4 C 95 % 1004,6 hPa 0,0 l/m 5,8 km/h (2 Bft) S 184 0 min 0,000 mm 0,0 UV-I 0 W/m -6,1 C -5,4 C 9,7 km/h (2 Bft) 98,20 %
07.01.2016 02:20 -5,3 C 96 % 1004,7 hPa 0,0 l/m 5,6 km/h (1 Bft) S-SW 210 0 min 0,000 mm 0,0 UV-I 0 W/m -5,8 C -5,3 C 8,0 km/h (2 Bft) 100,00 %
07.01.2016 02:25 -5,3 C 96 % 1004,6 hPa 0,0 l/m 3,6 km/h (1 Bft) S 184 0 min 0,000 mm 0,0 UV-I 0 W/m -5,8 C -5,3 C 6,4 km/h (2 Bft) 97,37 %
07.01.2016 02:30 -5,2 C 96 % 1004,6 hPa 0,0 l/m 2,1 km/h (1 Bft) S 173 0 min 0,000 mm 0,0 UV-I 0 W/m -5,7 C -5,2 C 6,4 km/h (2 Bft) 96,30 %
07.01.2016 02:35 -5,1 C 96 % 1004,6 hPa 0,0 l/m 1,2 km/h (1 Bft) S 173 0 min 0,000 mm 0,0 UV-I 0 W/m -5,6 C -5,1 C 3,2 km/h (1 Bft) 97,58 %
07.01.2016 02:40 -5,1 C 96 % 1004,6 hPa 0,0 l/m 3,5 km/h (1 Bft) S 175 0 min 0,000 mm 0,0 UV-I 0 W/m -5,6 C -5,1 C 6,4 km/h (2 Bft) 97,32 %
07.01.2016 02:45 -4,9 C 96 % 1004,6 hPa 0,0 l/m 2,2 km/h (1 Bft) S 170 0 min 0,000 mm 0,0 UV-I 0 W/m -5,4 C -4,9 C 6,4 km/h (2 Bft) 96,67 %
07.01.2016 02:50 -4,9 C 95 % 1004,6 hPa 0,0 l/m 2,3 km/h (1 Bft) S-SO 165 0 min 0,000 mm 0,0 UV-I 0 W/m -5,6 C -4,9 C 6,4 km/h (2 Bft) 96,52 %
07.01.2016 02:55 -4,8 C 96 % 1004,6 hPa 0,0 l/m 3,5 km/h (1 Bft) S 186 0 min 0,000 mm 0,0 UV-I 0 W/m -5,3 C -4,8 C 6,4 km/h (2 Bft) 97,56 %
07.01.2016 03:00 -4,7 C 96 % 1004,6 hPa 0,0 l/m 3,6 km/h (1 Bft) S 182 0 min 0,000 mm 0,0 UV-I 0 W/m -5,2 C -4,7 C 6,4 km/h (2 Bft) 99,11 %
07.01.2016 03:05 -4,6 C 96 % 1004,6 hPa 0,0 l/m 3,3 km/h (1 Bft) S 180 0 min 0,000 mm 0,0 UV-I 0 W/m -5,1 C -4,6 C 6,4 km/h (2 Bft) 100,00 %
07.01.2016 03:10 -4,5 C 96 % 1004,6 hPa 0,0 l/m 3,0 km/h (1 Bft) S 184 0 min 0,000 mm 0,0 UV-I 0 W/m -5,0 C -4,5 C 6,4 km/h (2 Bft) 97,22 %
07.01.2016 03:15 -4,4 C 95 % 1004,6 hPa 0,0 l/m 1,7 km/h (1 Bft) S 181 0 min 0,000 mm 0,0 UV-I 0 W/m -5,1 C -4,4 C 4,8 km/h (1 Bft) 99,21 %
07.01.2016 03:20 -4,3 C 95 % 1004,5 hPa 0,0 l/m 2,2 km/h (1 Bft) S-SO 165 0 min 0,000 mm 0,0 UV-I 0 W/m -5,0 C -4,3 C 8,0 km/h (2 Bft) 99,12 %
07.01.2016 03:25 -4,3 C 95 % 1004,6 hPa 0,0 l/m 3,0 km/h (1 Bft) S 171 0 min 0,000 mm 0,0 UV-I 0 W/m -5,0 C -4,3 C 6,4 km/h (2 Bft) 100,00 %
07.01.2016 03:30 -4,2 C 95 % 1004,6 hPa 0,0 l/m 3,8 km/h (1 Bft) S 182 0 min 0,000 mm 0,0 UV-I 0 W/m -4,9 C -4,2 C 6,4 km/h (2 Bft) 100,00 %
07.01.2016 03:35 -4,1 C 95 % 1004,6 hPa 0,0 l/m 3,7 km/h (1 Bft) S 184 0 min 0,000 mm 0,0 UV-I 0 W/m -4,8 C -4,1 C 6,4 km/h (2 Bft) 99,12 %
07.01.2016 03:40 -4,1 C 95 % 1004,7 hPa 0,0 l/m 3,4 km/h (1 Bft) S 189 0 min 0,000 mm 0,0 UV-I 0 W/m -4,8 C -4,1 C 4,8 km/h (1 Bft) 100,00 %
07.01.2016 03:45 -3,9 C 95 % 1004,7 hPa 0,0 l/m 4,9 km/h (1 Bft) S 171 0 min 0,000 mm 0,0 UV-I 0 W/m -4,6 C -3,9 C 8,0 km/h (2 Bft) 98,39 %
07.01.2016 03:50 -3,9 C 95 % 1004,7 hPa 0,0 l/m 4,3 km/h (1 Bft) S 186 0 min 0,000 mm 0,0 UV-I 0 W/m -4,6 C -3,9 C 8,0 km/h (2 Bft) 100,00 %
07.01.2016 03:55 -3,8 C 95 % 1004,8 hPa 0,0 l/m 3,0 km/h (1 Bft) S-SW 196 0 min 0,000 mm 0,0 UV-I 0 W/m -4,5 C -3,8 C 6,4 km/h (2 Bft) 99,11 %
07.01.2016 04:00 -3,7 C 95 % 1004,8 hPa 0,0 l/m 2,5 km/h (1 Bft) SW 219 0 min 0,000 mm 0,0 UV-I 0 W/m -4,4 C -3,7 C 4,8 km/h (1 Bft) 97,58 %
07.01.2016 04:05 -3,7 C 95 % 1004,9 hPa 0,0 l/m 3,6 km/h (1 Bft) S-SW 212 0 min 0,000 mm 0,0 UV-I 0 W/m -4,4 C -3,7 C 4,8 km/h (1 Bft) 98,78 %
07.01.2016 04:10 -3,7 C 95 % 1004,9 hPa 0,0 l/m 1,5 km/h (1 Bft) S-SW 211 0 min 0,000 mm 0,0 UV-I 0 W/m -4,4 C -3,7 C 4,8 km/h (1 Bft) 98,35 %
07.01.2016 04:15 -3,6 C 95 % 1004,9 hPa 0,0 l/m 2,7 km/h (1 Bft) S-SW 211 0 min 0,000 mm 0,0 UV-I 0 W/m -4,3 C -3,6 C 4,8 km/h (1 Bft) 100,00 %
07.01.2016 04:20 -3,5 C 95 % 1005,0 hPa 0,0 l/m 4,2 km/h (1 Bft) S-SW 193 0 min 0,000 mm 0,0 UV-I 0 W/m -4,2 C -3,5 C 6,4 km/h (2 Bft) 100,00 %
07.01.2016 04:25 -3,4 C 96 % 1005,0 hPa 0,0 l/m 2,1 km/h (1 Bft) S-SW 192 0 min 0,000 mm 0,0 UV-I 0 W/m -3,9 C -3,4 C 6,4 km/h (2 Bft) 97,39 %
07.01.2016 04:30 -3,3 C 96 % 1005,0 hPa 0,0 l/m 1,3 km/h (1 Bft) S-SW 192 0 min 0,000 mm 0,0 UV-I 0 W/m -3,8 C -3,3 C 3,2 km/h (1 Bft) 97,56 %
07.01.2016 04:35 -3,3 C 96 % 1005,0 hPa 0,0 l/m 1,0 km/h (0 Bft) S-SW 192 0 min 0,000 mm 0,0 UV-I 0 W/m -3,8 C -3,3 C 3,2 km/h (1 Bft) 97,46 %
07.01.2016 04:40 -3,3 C 96 % 1005,0 hPa 0,0 l/m 2,6 km/h (1 Bft) S-SW 192 0 min 0,000 mm 0,0 UV-I 0 W/m -3,8 C -3,3 C 4,8 km/h (1 Bft) 97,25 %
07.01.2016 04:45 -3,2 C 96 % 1004,9 hPa 0,0 l/m 2,7 km/h (1 Bft) S-SW 193 0 min 0,000 mm 0,0 UV-I 0 W/m -3,7 C -3,2 C 4,8 km/h (1 Bft) 96,75 %
07.01.2016 04:50 -3,2 C 96 % 1004,9 hPa 0,0 l/m 3,0 km/h (1 Bft) S 190 0 min 0,000 mm 0,0 UV-I 0 W/m -3,7 C -3,2 C 4,8 km/h (1 Bft) 96,43 %
07.01.2016 04:55 -3,1 C 96 % 1005,0 hPa 0,0 l/m 3,3 km/h (1 Bft) S 190 0 min 0,000 mm 0,0 UV-I 0 W/m -3,6 C -3,1 C 4,8 km/h (1 Bft) 97,56 %
07.01.2016 05:00 -3,0 C 96 % 1005,0 hPa 0,0 l/m 2,5 km/h (1 Bft) S 188 0 min 0,000 mm 0,0 UV-I 0 W/m -3,5 C -3,0 C 4,8 km/h (1 Bft) 98,21 %
07.01.2016 05:05 -2,9 C 96 % 1005,0 hPa 0,0 l/m 2,8 km/h (1 Bft) S 188 0 min 0,000 mm 0,0 UV-I 0 W/m -3,4 C -2,9 C 4,8 km/h (1 Bft) 97,39 %
07.01.2016 05:10 -2,8 C 96 % 1005,0 hPa 0,0 l/m 1,0 km/h (0 Bft) S 188 0 min 0,000 mm 0,0 UV-I 0 W/m -3,3 C -2,8 C 1,6 km/h (1 Bft) 98,37 %
07.01.2016 05:15 -2,8 C 96 % 1005,0 hPa 0,0 l/m 1,5 km/h (1 Bft) S 188 0 min 0,000 mm 0,0 UV-I 0 W/m -3,3 C -2,8 C 3,2 km/h (1 Bft) 98,31 %
07.01.2016 05:20 -2,7 C 96 % 1005,0 hPa 0,0 l/m 2,1 km/h (1 Bft) S 188 0 min 0,000 mm 0,0 UV-I 0 W/m -3,2 C -2,7 C 3,2 km/h (1 Bft) 98,25 %
07.01.2016 05:25 -2,7 C 96 % 1005,0 hPa 0,0 l/m 1,4 km/h (1 Bft) S 188 0 min 0,000 mm 0,0 UV-I 0 W/m -3,2 C -2,7 C 3,2 km/h (1 Bft) 99,15 %
07.01.2016 05:30 -2,6 C 96 % 1004,9 hPa 0,0 l/m 1,0 km/h (0 Bft) S 188 0 min 0,000 mm 0,0 UV-I 0 W/m -3,1 C -2,6 C 3,2 km/h (1 Bft) 99,11 %
07.01.2016 05:35 -2,6 C 96 % 1004,9 hPa 0,0 l/m 1,6 km/h (1 Bft) S 188 0 min 0,000 mm 0,0 UV-I 0 W/m -3,1 C -2,6 C 3,2 km/h (1 Bft) 100,00 %
07.01.2016 05:40 -2,4 C 96 % 1004,9 hPa 0,0 l/m 1,7 km/h (1 Bft) S 188 0 min 0,000 mm 0,0 UV-I 0 W/m -2,9 C -2,4 C 3,2 km/h (1 Bft) 99,11 %
07.01.2016 05:45 -2,4 C 96 % 1004,9 hPa 0,0 l/m 0,3 km/h (0 Bft) S 188 0 min 0,000 mm 0,0 UV-I 0 W/m -2,9 C -2,4 C 1,6 km/h (1 Bft) 99,08 %
07.01.2016 05:50 -2,3 C 96 % 1004,9 hPa 0,0 l/m 0,4 km/h (0 Bft) S 188 0 min 0,000 mm 0,0 UV-I 0 W/m -2,8 C -2,3 C 1,6 km/h (1 Bft) 99,22 %
07.01.2016 05:55 -2,3 C 96 % 1004,9 hPa 0,0 l/m 0,7 km/h (0 Bft) S 188 0 min 0,000 mm 0,0 UV-I 0 W/m -2,8 C -2,3 C 3,2 km/h (1 Bft) 100,00 %
07.01.2016 06:00 -2,2 C 96 % 1005,0 hPa 0,0 l/m 0,4 km/h (0 Bft) S 188 0 min 0,000 mm 0,0 UV-I 0 W/m -2,7 C -2,2 C 1,6 km/h (1 Bft) 100,00 %
07.01.2016 06:05 -2,2 C 96 % 1005,0 hPa 0,0 l/m 1,2 km/h (1 Bft) S 188 0 min 0,000 mm 0,0 UV-I 0 W/m -2,7 C -2,2 C 3,2 km/h (1 Bft) 98,21 %
07.01.2016 06:10 -2,2 C 96 % 1005,0 hPa 0,0 l/m 1,0 km/h (0 Bft) S 188 0 min 0,000 mm 0,0 UV-I 0 W/m -2,7 C -2,2 C 1,6 km/h (1 Bft) 99,17 %
07.01.2016 06:15 -2,2 C 96 % 1005,0 hPa 0,0 l/m 0,5 km/h (0 Bft) S 188 0 min 0,000 mm 0,0 UV-I 0 W/m -2,7 C -2,2 C 1,6 km/h (1 Bft) 98,20 %
07.01.2016 06:20 -2,1 C 96 % 1004,9 hPa 0,0 l/m 2,0 km/h (1 Bft) S 188 0 min 0,000 mm 0,0 UV-I 0 W/m -2,6 C -2,1 C 3,2 km/h (1 Bft) 99,17 %
07.01.2016 06:25 -2,1 C 96 % 1004,9 hPa 0,0 l/m 1,6 km/h (1 Bft) S 188 0 min 0,000 mm 0,0 UV-I 0 W/m -2,6 C -2,1 C 3,2 km/h (1 Bft) 99,11 %
07.01.2016 06:30 -2,1 C 96 % 1004,9 hPa 0,0 l/m 0,1 km/h (0 Bft) S 188 0 min 0,000 mm 0,0 UV-I 0 W/m -2,6 C -2,1 C 1,6 km/h (1 Bft) 98,37 %
07.01.2016 06:35 -2,1 C 96 % 1004,9 hPa 0,0 l/m 0,9 km/h (0 Bft) S 188 0 min 0,000 mm 0,0 UV-I 0 W/m -2,6 C -2,1 C 3,2 km/h (1 Bft) 99,08 %
07.01.2016 06:40 -2,0 C 96 % 1004,9 hPa 0,0 l/m 0,0 km/h (0 Bft) S 188 0 min 0,000 mm 0,0 UV-I 0 W/m -2,6 C -2,0 C 0,0 km/h (0 Bft) 96,69 %
07.01.2016 06:45 -1,9 C 96 % 1004,7 hPa 0,0 l/m 0,2 km/h (0 Bft) S 188 0 min 0,000 mm 0,0 UV-I 0 W/m -2,5 C -1,9 C 1,6 km/h (1 Bft) 97,30 %
07.01.2016 06:50 -1,9 C 96 % 1004,6 hPa 0,0 l/m 0,4 km/h (0 Bft) S 188 0 min 0,000 mm 0,0 UV-I 0 W/m -2,5 C -1,9 C 1,6 km/h (1 Bft) 97,46 %
07.01.2016 06:55 -1,9 C 96 % 1004,6 hPa 0,0 l/m 0,2 km/h (0 Bft) S 188 0 min 0,000 mm 0,0 UV-I 0 W/m -2,5 C -1,9 C 1,6 km/h (1 Bft) 97,56 %
07.01.2016 07:00 -1,9 C 96 % 1004,6 hPa 0,0 l/m 1,6 km/h (1 Bft) S 188 0 min 0,000 mm 0,0 UV-I 0 W/m -2,5 C -1,9 C 3,2 km/h (1 Bft) 97,58 %
07.01.2016 07:05 -1,8 C 97 % 1004,7 hPa 0,0 l/m 0,1 km/h (0 Bft) S 188 0 min 0,000 mm 0,0 UV-I 0 W/m -2,2 C -1,8 C 1,6 km/h (1 Bft) 97,32 %
07.01.2016 07:10 -1,7 C 96 % 1004,7 hPa 0,0 l/m 2,0 km/h (1 Bft) S 188 0 min 0,000 mm 0,0 UV-I 0 W/m -2,3 C -1,7 C 4,8 km/h (1 Bft) 98,33 %
07.01.2016 07:15 -1,8 C 96 % 1004,6 hPa 0,0 l/m 1,4 km/h (1 Bft) S 188 0 min 0,000 mm 0,0 UV-I 0 W/m -2,4 C -1,8 C 3,2 km/h (1 Bft) 99,08 %
07.01.2016 07:20 -1,8 C 96 % 1004,7 hPa 0,0 l/m 1,1 km/h (1 Bft) S 188 0 min 0,000 mm 0,0 UV-I 0 W/m -2,4 C -1,8 C 3,2 km/h (1 Bft) 98,31 %
07.01.2016 07:25 -1,7 C 97 % 1004,6 hPa 0,0 l/m 1,3 km/h (1 Bft) S 188 0 min 0,000 mm 0,0 UV-I 0 W/m -2,1 C -1,7 C 4,8 km/h (1 Bft) 99,15 %
07.01.2016 07:30 -1,6 C 97 % 1004,6 hPa 0,0 l/m 0,9 km/h (0 Bft) S 188 0 min 0,000 mm 0,0 UV-I 0 W/m -2,0 C -1,6 C 3,2 km/h (1 Bft) 100,00 %
07.01.2016 07:35 -1,6 C 97 % 1004,6 hPa 0,0 l/m 0,3 km/h (0 Bft) S 188 0 min 0,000 mm 0,0 UV-I 0 W/m -2,0 C -1,6 C 1,6 km/h (1 Bft) 100,00 %
07.01.2016 07:40 -1,5 C 97 % 1004,7 hPa 0,0 l/m 1,2 km/h (1 Bft) S 188 0 min 0,000 mm 0,0 UV-I 0 W/m -1,9 C -1,5 C 1,6 km/h (1 Bft) 100,00 %
07.01.2016 07:45 -1,5 C 96 % 1004,7 hPa 0,0 l/m 0,6 km/h (0 Bft) S 188 0 min 0,000 mm 0,0 UV-I 0 W/m -2,1 C -1,5 C 1,6 km/h (1 Bft) 100,00 %
07.01.2016 07:50 -1,4 C 96 % 1004,8 hPa 0,0 l/m 0,0 km/h (0 Bft) S 188 0 min 0,000 mm 0,0 UV-I 0 W/m -2,0 C -1,4 C 1,6 km/h (1 Bft) 99,10 %
07.01.2016 07:55 -1,4 C 96 % 1004,8 hPa 0,0 l/m 0,1 km/h (0 Bft) S 188 0 min 0,000 mm 0,0 UV-I 0 W/m -2,0 C -1,4 C 1,6 km/h (1 Bft) 99,17 %
07.01.2016 08:00 -1,3 C 96 % 1004,9 hPa 0,0 l/m 0,1 km/h (0 Bft) S 188 0 min 0,000 mm 0,0 UV-I 0 W/m -1,9 C -1,3 C 1,6 km/h (1 Bft) 99,06 %
07.01.2016 08:05 -1,3 C 96 % 1004,9 hPa 0,0 l/m 0,2 km/h (0 Bft) S 188 0 min 0,000 mm 0,0 UV-I 0 W/m -1,9 C -1,3 C 1,6 km/h (1 Bft) 100,00 %
07.01.2016 08:15 -1,4 C 96 % 1005,0 hPa 0,0 l/m 0,3 km/h (0 Bft) S 188 0 min 0,000 mm 0,0 UV-I 5 W/m -2,0 C -1,4 C 1,6 km/h (1 Bft) 100,00 %
07.01.2016 08:20 -1,4 C 96 % 1005,1 hPa 0,0 l/m 1,7 km/h (1 Bft) NO 39 0 min 0,000 mm 0,0 UV-I 5 W/m -2,0 C -1,4 C 6,4 km/h (2 Bft) 98,35 %
07.01.2016 08:25 -1,7 C 96 % 1005,1 hPa 0,0 l/m 3,7 km/h (1 Bft) N-NO 26 0 min 0,000 mm 0,0 UV-I 7 W/m -2,3 C -1,7 C 6,4 km/h (2 Bft) 100,00 %
07.01.2016 08:30 -1,8 C 96 % 1005,2 hPa 0,0 l/m 2,4 km/h (1 Bft) N-NO 26 0 min 0,000 mm 0,0 UV-I 10 W/m -2,4 C -1,8 C 4,8 km/h (1 Bft) 99,07 %
07.01.2016 08:35 -1,9 C 96 % 1005,2 hPa 0,0 l/m 3,8 km/h (1 Bft) N-NO 29 0 min 0,000 mm 0,0 UV-I 11 W/m -2,5 C -1,9 C 4,8 km/h (1 Bft) 100,00 %
07.01.2016 08:40 -1,8 C 96 % 1005,3 hPa 0,0 l/m 2,3 km/h (1 Bft) N-NO 29 0 min 0,000 mm 0,0 UV-I 12 W/m -2,4 C -1,8 C 4,8 km/h (1 Bft) 98,35 %
07.01.2016 08:45 -1,8 C 96 % 1005,4 hPa 0,0 l/m 2,1 km/h (1 Bft) N-NO 29 0 min 0,000 mm 0,0 UV-I 12 W/m -2,4 C -1,8 C 3,2 km/h (1 Bft) 95,83 %
07.01.2016 08:50 -1,8 C 96 % 1005,4 hPa 0,0 l/m 2,1 km/h (1 Bft) N-NO 29 0 min 0,000 mm 0,0 UV-I 16 W/m -2,4 C -1,8 C 3,2 km/h (1 Bft) 96,52 %
07.01.2016 08:55 -1,8 C 96 % 1005,5 hPa 0,0 l/m 2,6 km/h (1 Bft) N-NO 32 0 min 0,000 mm 0,0 UV-I 23 W/m -2,4 C -1,8 C 4,8 km/h (1 Bft) 95,83 %
07.01.2016 09:00 -1,8 C 96 % 1005,5 hPa 0,0 l/m 0,9 km/h (0 Bft) N-NO 32 0 min 0,000 mm 0,0 UV-I 19 W/m -2,4 C -1,8 C 3,2 km/h (1 Bft) 98,17 %
07.01.2016 09:05 -1,8 C 96 % 1005,4 hPa 0,0 l/m 2,8 km/h (1 Bft) NO 49 0 min 0,000 mm 0,0 UV-I 25 W/m -2,4 C -1,8 C 6,4 km/h (2 Bft) 96,61 %
07.01.2016 09:10 -1,9 C 95 % 1005,4 hPa 0,0 l/m 3,2 km/h (1 Bft) NO 53 0 min 0,000 mm 0,0 UV-I 24 W/m -2,6 C -1,9 C 4,8 km/h (1 Bft) 97,56 %
07.01.2016 09:15 -1,9 C 96 % 1005,5 hPa 0,0 l/m 3,4 km/h (1 Bft) NO 53 0 min 0,000 mm 0,0 UV-I 26 W/m -2,5 C -1,9 C 4,8 km/h (1 Bft) 97,32 %
07.01.2016 09:20 -1,9 C 96 % 1005,4 hPa 0,0 l/m 3,1 km/h (1 Bft) NO 53 0 min 0,000 mm 0,0 UV-I 37 W/m -2,5 C -1,9 C 4,8 km/h (1 Bft) 99,15 %
07.01.2016 09:25 -1,8 C 96 % 1005,4 hPa 0,0 l/m 4,7 km/h (1 Bft) N-NO 27 0 min 0,000 mm 0,0 UV-I 52 W/m -2,4 C -1,8 C 8,0 km/h (2 Bft) 99,19 %
07.01.2016 09:30 -1,8 C 96 % 1005,4 hPa 0,0 l/m 4,2 km/h (1 Bft) N-NO 21 0 min 0,000 mm 0,0 UV-I 49 W/m -2,4 C -1,8 C 6,4 km/h (2 Bft) 99,13 %
07.01.2016 09:35 -1,9 C 96 % 1005,2 hPa 0,0 l/m 3,3 km/h (1 Bft) N-NO 32 0 min 0,000 mm 0,0 UV-I 49 W/m -2,5 C -1,9 C 4,8 km/h (1 Bft) 99,12 %
07.01.2016 09:40 -1,8 C 97 % 1005,1 hPa 0,0 l/m 2,8 km/h (1 Bft) NO 40 0 min 0,000 mm 0,0 UV-I 49 W/m -2,2 C -1,8 C 6,4 km/h (2 Bft) 99,19 %
07.01.2016 09:45 -1,8 C 97 % 1005,0 hPa 0,0 l/m 5,2 km/h (1 Bft) SO 133 0 min 0,000 mm 0,0 UV-I 55 W/m -2,2 C -1,8 C 8,0 km/h (2 Bft) 100,00 %
07.01.2016 09:50 -1,4 C 97 % 1005,0 hPa 0,0 l/m 3,8 km/h (1 Bft) O-SO 121 0 min 0,000 mm 0,0 UV-I 53 W/m -1,8 C -1,4 C 6,4 km/h (2 Bft) 100,00 %
07.01.2016 09:55 -1,2 C 97 % 1004,9 hPa 0,0 l/m 1,1 km/h (1 Bft) NO 51 0 min 0,000 mm 0,0 UV-I 66 W/m -1,6 C -1,2 C 4,8 km/h (1 Bft) 100,00 %
07.01.2016 10:00 -1,0 C 97 % 1004,9 hPa 0,0 l/m 5,1 km/h (1 Bft) NO 55 0 min 0,025 mm 0,0 UV-I 67 W/m -1,4 C -1,0 C 8,0 km/h (2 Bft) 100,00 %
07.01.2016 10:05 -0,9 C 97 % 1004,9 hPa 0,0 l/m 7,5 km/h (2 Bft) NO 42 0 min 0,000 mm 0,0 UV-I 80 W/m -1,3 C -2,1 C 9,7 km/h (2 Bft) 99,15 %
07.01.2016 10:10 -0,9 C 97 % 1004,8 hPa 0,0 l/m 4,7 km/h (1 Bft) O 84 0 min 0,000 mm 0,0 UV-I 63 W/m -1,3 C -0,9 C 6,4 km/h (2 Bft) 99,08 %
07.01.2016 10:15 -0,7 C 97 % 1004,8 hPa 0,0 l/m 4,6 km/h (1 Bft) O 90 0 min 0,000 mm 0,0 UV-I 61 W/m -1,1 C -0,7 C 9,7 km/h (2 Bft) 98,37 %
07.01.2016 10:20 -0,4 C 97 % 1004,8 hPa 0,0 l/m 4,9 km/h (1 Bft) O-NO 76 0 min 0,000 mm 0,0 UV-I 78 W/m -0,8 C -0,4 C 8,0 km/h (2 Bft) 100,00 %
07.01.2016 10:25 -0,3 C 97 % 1004,6 hPa 0,0 l/m 6,4 km/h (2 Bft) O-NO 74 0 min 0,000 mm 0,0 UV-I 68 W/m -0,7 C -0,3 C 9,7 km/h (2 Bft) 100,00 %
07.01.2016 10:30 -0,2 C 97 % 1004,7 hPa 0,0 l/m 2,2 km/h (1 Bft) SO 146 0 min 0,000 mm 0,0 UV-I 125 W/m -0,6 C -0,2 C 4,8 km/h (1 Bft) 95,61 %
07.01.2016 10:35 -0,1 C 96 % 1004,7 hPa 0,0 l/m 2,0 km/h (1 Bft) SO 134 0 min 0,000 mm 0,0 UV-I 127 W/m -0,7 C -0,1 C 4,8 km/h (1 Bft) 98,46 %
07.01.2016 10:40 -0,1 C 96 % 1004,6 hPa 0,0 l/m 3,0 km/h (1 Bft) SO 133 0 min 0,000 mm 0,0 UV-I 72 W/m -0,7 C -0,1 C 4,8 km/h (1 Bft) 98,17 %
07.01.2016 10:45 0,0 C 96 % 1004,7 hPa 0,0 l/m 1,6 km/h (1 Bft) SO 133 0 min 0,000 mm 0,0 UV-I 48 W/m -0,6 C 0,0 C 3,2 km/h (1 Bft) 97,62 %
07.01.2016 10:50 -0,1 C 96 % 1004,6 hPa 0,0 l/m 1,6 km/h (1 Bft) SO 145 0 min 0,000 mm 0,0 UV-I 37 W/m -0,7 C -0,1 C 3,2 km/h (1 Bft) 95,76 %
07.01.2016 10:55 -0,1 C 96 % 1004,5 hPa 0,0 l/m 2,3 km/h (1 Bft) SO 137 0 min 0,000 mm 0,0 UV-I 48 W/m -0,7 C -0,1 C 4,8 km/h (1 Bft) 97,37 %
07.01.2016 11:00 -0,1 C 96 % 1004,4 hPa 0,0 l/m 1,9 km/h (1 Bft) SO 137 0 min 0,026 mm 0,0 UV-I 76 W/m -0,7 C -0,1 C 4,8 km/h (1 Bft) 97,46 %
07.01.2016 11:05 0,0 C 96 % 1004,3 hPa 0,0 l/m 3,0 km/h (1 Bft) O-NO 76 0 min 0,000 mm 0,0 UV-I 91 W/m -0,6 C 0,0 C 6,4 km/h (2 Bft) 95,41 %
07.01.2016 11:10 0,1 C 96 % 1004,3 hPa 0,0 l/m 1,0 km/h (0 Bft) O-NO 76 0 min 0,000 mm 0,0 UV-I 161 W/m -0,5 C 0,1 C 3,2 km/h (1 Bft) 97,56 %
07.01.2016 11:15 0,3 C 96 % 1004,2 hPa 0,0 l/m 2,9 km/h (1 Bft) NO 56 0 min 0,000 mm 0,0 UV-I 145 W/m -0,3 C 0,3 C 8,0 km/h (2 Bft) 98,31 %
07.01.2016 11:20 0,2 C 96 % 1004,0 hPa 0,0 l/m 7,1 km/h (2 Bft) O-NO 74 0 min 0,000 mm 0,0 UV-I 137 W/m -0,4 C -0,5 C 12,9 km/h (3 Bft) 99,03 %
07.01.2016 11:25 0,1 C 96 % 1003,9 hPa 0,0 l/m 7,1 km/h (2 Bft) O-NO 63 0 min 0,000 mm 0,0 UV-I 153 W/m -0,5 C -0,6 C 12,9 km/h (3 Bft) 99,19 %
07.01.2016 11:30 0,1 C 96 % 1003,8 hPa 0,0 l/m 4,5 km/h (1 Bft) O 86 0 min 0,000 mm 0,0 UV-I 159 W/m -0,5 C 0,1 C 11,3 km/h (2 Bft) 99,17 %
07.01.2016 11:35 0,1 C 96 % 1003,6 hPa 0,0 l/m 7,0 km/h (2 Bft) O-NO 67 0 min 0,000 mm 0,0 UV-I 160 W/m -0,5 C -0,5 C 12,9 km/h (3 Bft) 99,15 %
07.01.2016 11:40 0,1 C 96 % 1003,6 hPa 0,0 l/m 6,8 km/h (2 Bft) O-NO 63 0 min 0,000 mm 0,0 UV-I 167 W/m -0,5 C -0,3 C 9,7 km/h (2 Bft) 98,39 %
07.01.2016 11:45 0,0 C 97 % 1003,5 hPa 0,0 l/m 7,6 km/h (2 Bft) O-NO 61 0 min 0,000 mm 0,0 UV-I 156 W/m -0,4 C -1,2 C 12,9 km/h (3 Bft) 99,15 %
07.01.2016 11:50 0,1 C 97 % 1003,5 hPa 0,0 l/m 7,2 km/h (2 Bft) O-NO 73 0 min 0,000 mm 0,0 UV-I 165 W/m -0,3 C -0,7 C 11,3 km/h (2 Bft) 100,00 %
07.01.2016 11:55 0,1 C 97 % 1003,5 hPa 0,0 l/m 6,1 km/h (2 Bft) O-NO 67 0 min 0,000 mm 0,0 UV-I 140 W/m -0,3 C 0,1 C 11,3 km/h (2 Bft) 100,00 %
07.01.2016 12:00 0,2 C 97 % 1003,5 hPa 0,0 l/m 4,7 km/h (1 Bft) O-NO 75 0 min 0,051 mm 0,0 UV-I 141 W/m -0,2 C 0,2 C 8,0 km/h (2 Bft) 100,00 %
07.01.2016 12:05 0,3 C 97 % 1003,4 hPa 0,0 l/m 4,6 km/h (1 Bft) O-NO 57 0 min 0,000 mm 0,0 UV-I 154 W/m -0,1 C 0,3 C 6,4 km/h (2 Bft) 99,15 %
07.01.2016 12:10 0,3 C 98 % 1003,3 hPa 0,0 l/m 4,1 km/h (1 Bft) O-NO 59 0 min 0,000 mm 0,1 UV-I 141 W/m 0,0 C 0,3 C 6,4 km/h (2 Bft) 99,19 %
07.01.2016 12:15 0,3 C 98 % 1003,0 hPa 0,0 l/m 4,4 km/h (1 Bft) NO 51 0 min 0,000 mm 0,5 UV-I 157 W/m 0,0 C 0,3 C 8,0 km/h (2 Bft) 100,00 %
07.01.2016 12:20 0,4 C 98 % 1002,8 hPa 0,0 l/m 6,3 km/h (2 Bft) O-NO 69 0 min 0,000 mm 0,5 UV-I 163 W/m 0,1 C 0,4 C 9,7 km/h (2 Bft) 98,94 %
07.01.2016 12:25 0,4 C 98 % 1002,8 hPa 0,0 l/m 8,4 km/h (2 Bft) O-NO 65 5 min 0,000 mm 0,5 UV-I 190 W/m 0,1 C -1,6 C 12,9 km/h (3 Bft) 99,26 %
07.01.2016 12:30 0,4 C 98 % 1002,6 hPa 0,2 l/m 6,5 km/h (2 Bft) NO 53 0 min 0,000 mm 0,5 UV-I 168 W/m 0,1 C 0,3 C 9,7 km/h (2 Bft) 100,00 %
07.01.2016 12:35 0,4 C 97 % 1002,4 hPa 0,0 l/m 7,7 km/h (2 Bft) NO 55 0 min 0,000 mm 0,5 UV-I 176 W/m -0,0 C -0,9 C 11,3 km/h (2 Bft) 96,43 %
07.01.2016 12:40 0,4 C 97 % 1002,2 hPa 0,2 l/m 7,2 km/h (2 Bft) NO 46 0 min 0,000 mm 0,5 UV-I 157 W/m -0,0 C -0,4 C 9,7 km/h (2 Bft) 97,46 %
07.01.2016 12:45 0,4 C 97 % 1002,0 hPa 0,0 l/m 8,5 km/h (2 Bft) NO 42 0 min 0,000 mm 0,5 UV-I 162 W/m -0,0 C -1,7 C 12,9 km/h (3 Bft) 95,00 %
07.01.2016 12:50 0,4 C 98 % 1002,0 hPa 0,0 l/m 7,6 km/h (2 Bft) NO 55 0 min 0,000 mm 0,5 UV-I 155 W/m 0,1 C -0,8 C 14,5 km/h (3 Bft) 96,61 %
07.01.2016 12:55 0,4 C 98 % 1001,7 hPa 0,2 l/m 8,6 km/h (2 Bft) O-NO 64 0 min 0,000 mm 0,5 UV-I 156 W/m 0,1 C -1,8 C 14,5 km/h (3 Bft) 95,37 %
07.01.2016 13:00 0,3 C 98 % 1001,7 hPa 0,2 l/m 9,3 km/h (2 Bft) O-NO 59 0 min 0,050 mm 0,5 UV-I 153 W/m 0,0 C -2,5 C 14,5 km/h (3 Bft) 96,72 %
07.01.2016 13:05 0,3 C 98 % 1001,7 hPa 0,0 l/m 8,5 km/h (2 Bft) O-NO 59 0 min 0,000 mm 0,5 UV-I 142 W/m 0,0 C -1,8 C 14,5 km/h (3 Bft) 97,39 %
07.01.2016 13:10 0,3 C 98 % 1001,6 hPa 0,0 l/m 9,3 km/h (2 Bft) O-NO 68 0 min 0,000 mm 0,4 UV-I 141 W/m 0,0 C -2,5 C 14,5 km/h (3 Bft) 97,50 %
07.01.2016 13:15 0,3 C 98 % 1001,4 hPa 0,2 l/m 12,1 km/h (2 Bft) NO 49 0 min 0,000 mm 0,0 UV-I 145 W/m 0,0 C -4,7 C 17,7 km/h (3 Bft) 99,15 %
07.01.2016 13:20 0,3 C 98 % 1001,3 hPa 0,0 l/m 10,6 km/h (2 Bft) O-NO 59 0 min 0,000 mm 0,0 UV-I 154 W/m 0,0 C -3,6 C 16,1 km/h (3 Bft) 100,00 %
07.01.2016 13:25 0,3 C 97 % 1001,3 hPa 0,0 l/m 11,9 km/h (2 Bft) O-NO 69 0 min 0,000 mm 0,1 UV-I 158 W/m -0,1 C -4,6 C 17,7 km/h (3 Bft) 100,00 %
07.01.2016 13:30 0,3 C 97 % 1001,1 hPa 0,2 l/m 10,3 km/h (2 Bft) NO 51 5 min 0,000 mm 0,5 UV-I 171 W/m -0,1 C -3,4 C 16,1 km/h (3 Bft) 100,00 %
07.01.2016 13:35 0,4 C 96 % 1001,0 hPa 0,0 l/m 11,2 km/h (2 Bft) N-NO 33 0 min 0,000 mm 0,0 UV-I 143 W/m -0,2 C -4,0 C 17,7 km/h (3 Bft) 99,15 %
07.01.2016 13:40 0,4 C 96 % 1001,1 hPa 0,0 l/m 8,8 km/h (2 Bft) O-NO 59 0 min 0,000 mm 0,0 UV-I 124 W/m -0,2 C -2,0 C 12,9 km/h (3 Bft) 100,00 %
07.01.2016 13:45 0,4 C 96 % 1001,2 hPa 0,2 l/m 9,8 km/h (2 Bft) NO 45 0 min 0,000 mm 0,0 UV-I 116 W/m -0,2 C -2,8 C 16,1 km/h (3 Bft) 99,08 %
07.01.2016 13:50 0,4 C 95 % 1001,1 hPa 0,0 l/m 12,1 km/h (2 Bft) O-NO 74 0 min 0,000 mm 0,0 UV-I 103 W/m -0,3 C -4,6 C 17,7 km/h (3 Bft) 100,00 %
07.01.2016 13:55 0,3 C 96 % 1001,1 hPa 0,0 l/m 12,2 km/h (2 Bft) O-NO 62 0 min 0,000 mm 0,0 UV-I 102 W/m -0,3 C -4,8 C 16,1 km/h (3 Bft) 99,08 %
07.01.2016 14:00 0,3 C 96 % 1000,8 hPa 0,2 l/m 11,2 km/h (2 Bft) O-NO 71 0 min 0,051 mm 0,0 UV-I 107 W/m -0,3 C -4,1 C 16,1 km/h (3 Bft) 98,31 %
07.01.2016 14:05 0,4 C 96 % 1000,9 hPa 0,0 l/m 10,2 km/h (2 Bft) NO 55 0 min 0,000 mm 0,0 UV-I 102 W/m -0,2 C -3,2 C 16,1 km/h (3 Bft) 99,21 %
07.01.2016 14:10 0,4 C 96 % 1000,8 hPa 0,0 l/m 8,8 km/h (2 Bft) O-NO 57 0 min 0,000 mm 0,0 UV-I 97 W/m -0,2 C -2,0 C 14,5 km/h (3 Bft) 100,00 %
07.01.2016 14:15 0,4 C 96 % 1000,8 hPa 0,0 l/m 8,4 km/h (2 Bft) O-NO 57 0 min 0,000 mm 0,0 UV-I 94 W/m -0,2 C -1,6 C 14,5 km/h (3 Bft) 100,00 %
07.01.2016 14:20 0,3 C 96 % 1000,8 hPa 0,0 l/m 7,9 km/h (2 Bft) O-NO 61 0 min 0,000 mm 0,0 UV-I 93 W/m -0,3 C -1,2 C 11,3 km/h (2 Bft) 100,00 %
07.01.2016 14:25 0,4 C 96 % 1000,7 hPa 0,2 l/m 8,3 km/h (2 Bft) NO 44 0 min 0,000 mm 0,0 UV-I 90 W/m -0,2 C -1,5 C 14,5 km/h (3 Bft) 100,00 %
07.01.2016 14:30 0,4 C 96 % 1000,7 hPa 0,0 l/m 9,5 km/h (2 Bft) N-NO 32 0 min 0,000 mm 0,0 UV-I 85 W/m -0,2 C -2,6 C 14,5 km/h (3 Bft) 99,10 %
07.01.2016 14:35 0,4 C 96 % 1000,6 hPa 0,0 l/m 9,2 km/h (2 Bft) N-NO 28 0 min 0,000 mm 0,0 UV-I 72 W/m -0,2 C -2,3 C 16,1 km/h (3 Bft) 99,19 %
07.01.2016 14:40 0,5 C 96 % 1000,5 hPa 0,0 l/m 10,8 km/h (2 Bft) NO 51 0 min 0,000 mm 0,0 UV-I 66 W/m -0,1 C -3,5 C 17,7 km/h (3 Bft) 95,73 %
07.01.2016 14:45 0,5 C 97 % 1000,5 hPa 0,0 l/m 10,0 km/h (2 Bft) NO 49 0 min 0,000 mm 0,0 UV-I 65 W/m 0,1 C -2,9 C 17,7 km/h (3 Bft) 96,43 %
07.01.2016 14:50 0,5 C 97 % 1000,4 hPa 0,2 l/m 10,2 km/h (2 Bft) NO 53 0 min 0,000 mm 0,0 UV-I 55 W/m 0,1 C -3,1 C 17,7 km/h (3 Bft) 97,39 %
07.01.2016 14:55 0,4 C 97 % 1000,4 hPa 0,0 l/m 13,4 km/h (3 Bft) NO 51 0 min 0,000 mm 0,0 UV-I 46 W/m -0,0 C -5,5 C 20,9 km/h (4 Bft) 96,61 %
07.01.2016 15:00 0,4 C 97 % 1000,3 hPa 0,0 l/m 15,3 km/h (3 Bft) O-NO 60 0 min 0,026 mm 0,0 UV-I 31 W/m -0,0 C -6,7 C 22,5 km/h (4 Bft) 96,49 %
07.01.2016 15:05 0,4 C 97 % 1000,1 hPa 0,0 l/m 18,1 km/h (3 Bft) NO 53 0 min 0,000 mm 0,0 UV-I 22 W/m -0,0 C -8,2 C 25,7 km/h (4 Bft) 96,77 %
07.01.2016 15:10 0,4 C 97 % 1000,0 hPa 0,0 l/m 18,4 km/h (3 Bft) O-NO 60 0 min 0,000 mm 0,0 UV-I 22 W/m -0,0 C -8,3 C 30,6 km/h (5 Bft) 98,25 %
07.01.2016 15:15 0,4 C 97 % 999,9 hPa 0,0 l/m 20,1 km/h (4 Bft) O 86 0 min 0,000 mm 0,0 UV-I 21 W/m -0,0 C -9,2 C 30,6 km/h (5 Bft) 97,46 %
07.01.2016 15:20 0,3 C 97 % 999,8 hPa 0,0 l/m 19,1 km/h (3 Bft) NO 39 0 min 0,000 mm 0,0 UV-I 22 W/m -0,1 C -8,8 C 29,0 km/h (5 Bft) 98,35 %
07.01.2016 15:25 0,3 C 98 % 999,7 hPa 0,2 l/m 21,7 km/h (4 Bft) O-NO 63 0 min 0,000 mm 0,0 UV-I 24 W/m 0,0 C -10,0 C 29,0 km/h (5 Bft) 99,07 %
07.01.2016 15:30 0,3 C 97 % 999,6 hPa 0,0 l/m 19,1 km/h (3 Bft) O-NO 58 0 min 0,000 mm 0,0 UV-I 22 W/m -0,1 C -8,8 C 30,6 km/h (5 Bft) 99,15 %
07.01.2016 15:35 0,3 C 98 % 999,5 hPa 0,0 l/m 18,1 km/h (3 Bft) NO 41 0 min 0,000 mm 0,0 UV-I 21 W/m 0,0 C -8,3 C 27,4 km/h (4 Bft) 100,00 %
07.01.2016 15:40 0,2 C 98 % 999,3 hPa 0,0 l/m 17,8 km/h (3 Bft) O-NO 57 0 min 0,000 mm 0,0 UV-I 19 W/m -0,1 C -8,3 C 27,4 km/h (4 Bft) 98,39 %
07.01.2016 15:45 0,2 C 98 % 999,1 hPa 0,0 l/m 21,6 km/h (4 Bft) NO 51 0 min 0,000 mm 0,0 UV-I 17 W/m -0,1 C -10,1 C 30,6 km/h (5 Bft) 100,00 %
07.01.2016 15:50 0,2 C 98 % 999,1 hPa 0,0 l/m 19,8 km/h (3 Bft) O-NO 67 0 min 0,000 mm 0,0 UV-I 15 W/m -0,1 C -9,3 C 25,7 km/h (4 Bft) 100,00 %
07.01.2016 15:55 0,2 C 98 % 999,2 hPa 0,0 l/m 21,6 km/h (4 Bft) O-NO 74 0 min 0,000 mm 0,0 UV-I 13 W/m -0,1 C -10,1 C 29,0 km/h (5 Bft) 99,19 %
07.01.2016 16:00 0,2 C 98 % 999,3 hPa 0,0 l/m 16,6 km/h (3 Bft) NO 35 0 min 0,000 mm 0,0 UV-I 12 W/m -0,1 C -7,7 C 22,5 km/h (4 Bft) 99,08 %
07.01.2016 16:05 0,2 C 98 % 999,5 hPa 0,0 l/m 12,2 km/h (2 Bft) NO 46 0 min 0,000 mm 0,0 UV-I 9 W/m -0,1 C -4,9 C 20,9 km/h (4 Bft) 100,00 %
07.01.2016 16:10 0,3 C 98 % 999,6 hPa 0,0 l/m 15,7 km/h (3 Bft) O-NO 57 0 min 0,000 mm 0,0 UV-I 6 W/m 0,0 C -7,0 C 20,9 km/h (4 Bft) 100,00 %
07.01.2016 16:15 0,3 C 98 % 999,8 hPa 0,0 l/m 12,0 km/h (2 Bft) O 82 0 min 0,000 mm 0,0 UV-I 5 W/m 0,0 C -4,7 C 17,7 km/h (3 Bft) 100,00 %
07.01.2016 16:20 0,3 C 98 % 999,7 hPa 0,0 l/m 10,0 km/h (2 Bft) NO 50 0 min 0,000 mm 0,0 UV-I 4 W/m 0,0 C -3,1 C 19,3 km/h (3 Bft) 99,11 %
07.01.2016 16:25 0,3 C 98 % 999,7 hPa 0,0 l/m 12,8 km/h (3 Bft) NO 53 0 min 0,000 mm 0,0 UV-I 0 W/m 0,0 C -5,2 C 19,3 km/h (3 Bft) 99,15 %
07.01.2016 16:30 0,3 C 98 % 999,7 hPa 0,0 l/m 14,6 km/h (3 Bft) NO 46 0 min 0,000 mm 0,0 UV-I 0 W/m 0,0 C -6,4 C 22,5 km/h (4 Bft) 100,00 %
07.01.2016 16:35 0,3 C 98 % 999,8 hPa 0,0 l/m 14,7 km/h (3 Bft) O-NO 57 0 min 0,000 mm 0,0 UV-I 0 W/m 0,0 C -6,4 C 19,3 km/h (3 Bft) 100,00 %
07.01.2016 16:40 0,3 C 98 % 1000,0 hPa 0,2 l/m 15,7 km/h (3 Bft) O-NO 63 0 min 0,000 mm 0,0 UV-I 0 W/m 0,0 C -7,0 C 24,1 km/h (4 Bft) 99,13 %
07.01.2016 16:45 0,3 C 98 % 1000,1 hPa 0,0 l/m 16,5 km/h (3 Bft) O-NO 74 0 min 0,000 mm 0,0 UV-I 0 W/m 0,0 C -7,5 C 24,1 km/h (4 Bft) 97,56 %
07.01.2016 16:50 0,3 C 98 % 1000,1 hPa 0,0 l/m 15,1 km/h (3 Bft) O-NO 64 0 min 0,000 mm 0,0 UV-I 0 W/m 0,0 C -6,7 C 24,1 km/h (4 Bft) 98,17 %
07.01.2016 16:55 0,3 C 98 % 1000,0 hPa 0,0 l/m 16,2 km/h (3 Bft) O 80 0 min 0,000 mm 0,0 UV-I 0 W/m 0,0 C -7,3 C 22,5 km/h (4 Bft) 96,52 %
07.01.2016 17:00 0,4 C 98 % 1000,0 hPa 0,0 l/m 13,1 km/h (3 Bft) O-NO 74 0 min 0,000 mm 0,0 UV-I 0 W/m 0,1 C -5,3 C 22,5 km/h (4 Bft) 95,83 %
07.01.2016 17:05 0,4 C 98 % 1000,1 hPa 0,0 l/m 11,9 km/h (2 Bft) O 101 0 min 0,000 mm 0,0 UV-I 0 W/m 0,1 C -4,5 C 17,7 km/h (3 Bft) 96,77 %
07.01.2016 17:10 0,4 C 98 % 999,9 hPa 0,0 l/m 13,9 km/h (3 Bft) O-NO 65 0 min 0,000 mm 0,0 UV-I 0 W/m 0,1 C -5,8 C 20,9 km/h (4 Bft) 96,49 %
07.01.2016 17:15 0,4 C 98 % 999,8 hPa 0,0 l/m 16,8 km/h (3 Bft) O-NO 58 0 min 0,000 mm 0,0 UV-I 0 W/m 0,1 C -7,5 C 20,9 km/h (4 Bft) 98,23 %
07.01.2016 17:20 0,4 C 98 % 999,8 hPa 0,0 l/m 16,9 km/h (3 Bft) O-NO 67 0 min 0,000 mm 0,0 UV-I 0 W/m 0,1 C -7,6 C 22,5 km/h (4 Bft) 99,15 %
07.01.2016 17:25 0,4 C 98 % 999,8 hPa 0,0 l/m 17,0 km/h (3 Bft) NO 56 0 min 0,000 mm 0,0 UV-I 0 W/m 0,1 C -7,6 C 25,7 km/h (4 Bft) 99,11 %
07.01.2016 17:30 0,4 C 98 % 999,6 hPa 0,0 l/m 19,9 km/h (4 Bft) O-NO 65 0 min 0,000 mm 0,0 UV-I 0 W/m 0,1 C -9,1 C 25,7 km/h (4 Bft) 100,00 %
07.01.2016 17:40 0,5 C 98 % 999,4 hPa 0,0 l/m 21,0 km/h (4 Bft) O-NO 76 0 min 0,000 mm 0,0 UV-I 0 W/m 0,2 C -9,4 C 30,6 km/h (5 Bft) 99,35 %
07.01.2016 17:45 0,6 C 98 % 999,9 hPa 0,0 l/m 15,4 km/h (3 Bft) O-NO 76 0 min 0,000 mm 0,0 UV-I 0 W/m 0,3 C -6,5 C 25,7 km/h (4 Bft) 100,00 %
07.01.2016 17:50 0,6 C 98 % 999,8 hPa 0,0 l/m 14,1 km/h (3 Bft) O 84 0 min 0,000 mm 0,0 UV-I 0 W/m 0,3 C -5,7 C 24,1 km/h (4 Bft) 100,00 %
07.01.2016 17:55 0,6 C 98 % 999,8 hPa 0,0 l/m 11,9 km/h (2 Bft) NO 44 0 min 0,000 mm 0,0 UV-I 0 W/m 0,3 C -4,2 C 20,9 km/h (4 Bft) 98,31 %
07.01.2016 18:00 0,7 C 98 % 999,7 hPa 0,0 l/m 11,3 km/h (2 Bft) NO 51 0 min 0,000 mm 0,0 UV-I 0 W/m 0,4 C -3,7 C 17,7 km/h (3 Bft) 97,46 %
07.01.2016 18:05 0,7 C 98 % 999,7 hPa 0,0 l/m 12,0 km/h (2 Bft) NO 48 0 min 0,000 mm 0,0 UV-I 0 W/m 0,4 C -4,2 C 19,3 km/h (3 Bft) 97,30 %
07.01.2016 18:10 0,7 C 98 % 999,7 hPa 0,0 l/m 13,9 km/h (3 Bft) O-NO 75 0 min 0,000 mm 0,0 UV-I 0 W/m 0,4 C -5,5 C 20,9 km/h (4 Bft) 98,35 %
07.01.2016 18:15 0,7 C 98 % 999,7 hPa 0,0 l/m 13,8 km/h (3 Bft) NO 44 0 min 0,000 mm 0,0 UV-I 0 W/m 0,4 C -5,4 C 20,9 km/h (4 Bft) 100,00 %
07.01.2016 18:20 0,7 C 98 % 999,7 hPa 0,0 l/m 15,7 km/h (3 Bft) O 90 0 min 0,000 mm 0,0 UV-I 0 W/m 0,4 C -6,5 C 24,1 km/h (4 Bft) 99,11 %
07.01.2016 18:35 0,7 C 98 % 999,8 hPa 0,2 l/m 11,3 km/h (2 Bft) NO 38 0 min 0,000 mm 0,0 UV-I 0 W/m 0,4 C -3,7 C 20,9 km/h (4 Bft) 99,44 %
07.01.2016 18:40 0,7 C 98 % 999,7 hPa 0,0 l/m 8,4 km/h (2 Bft) O-NO 72 0 min 0,000 mm 0,0 UV-I 0 W/m 0,4 C -1,3 C 14,5 km/h (3 Bft) 97,32 %
07.01.2016 18:45 0,7 C 98 % 999,7 hPa 0,0 l/m 11,3 km/h (2 Bft) O-NO 75 0 min 0,000 mm 0,0 UV-I 0 W/m 0,4 C -3,7 C 20,9 km/h (4 Bft) 98,25 %
07.01.2016 18:50 0,6 C 98 % 1000,0 hPa 0,0 l/m 9,6 km/h (2 Bft) O-NO 78 0 min 0,000 mm 0,0 UV-I 0 W/m 0,3 C -2,5 C 16,1 km/h (3 Bft) 97,52 %
07.01.2016 18:55 0,7 C 98 % 1000,1 hPa 0,0 l/m 5,1 km/h (1 Bft) O-NO 69 0 min 0,000 mm 0,0 UV-I 0 W/m 0,4 C 0,7 C 11,3 km/h (2 Bft) 95,61 %
07.01.2016 19:00 0,7 C 98 % 1000,2 hPa 0,0 l/m 6,8 km/h (2 Bft) NO 52 0 min 0,000 mm 0,0 UV-I 0 W/m 0,4 C 0,3 C 12,9 km/h (3 Bft) 96,61 %
07.01.2016 19:05 0,7 C 98 % 1000,2 hPa 0,0 l/m 6,6 km/h (2 Bft) NO 53 0 min 0,000 mm 0,0 UV-I 0 W/m 0,4 C 0,5 C 12,9 km/h (3 Bft) 95,65 %
07.01.2016 19:10 0,7 C 97 % 1000,3 hPa 0,0 l/m 8,2 km/h (2 Bft) O-NO 63 0 min 0,000 mm 0,0 UV-I 0 W/m 0,3 C -1,1 C 14,5 km/h (3 Bft) 96,75 %
07.01.2016 19:15 0,7 C 97 % 1000,4 hPa 0,0 l/m 6,4 km/h (2 Bft) SO 128 0 min 0,000 mm 0,0 UV-I 0 W/m 0,3 C 0,7 C 14,5 km/h (3 Bft) 96,61 %
07.01.2016 19:20 0,7 C 97 % 1000,6 hPa 0,0 l/m 1,5 km/h (1 Bft) SO 131 0 min 0,000 mm 0,0 UV-I 0 W/m 0,3 C 0,7 C 4,8 km/h (1 Bft) 99,11 %
07.01.2016 19:25 0,7 C 97 % 1000,5 hPa 0,0 l/m 3,3 km/h (1 Bft) O 80 0 min 0,000 mm 0,0 UV-I 0 W/m 0,3 C 0,7 C 6,4 km/h (2 Bft) 96,75 %
07.01.2016 19:30 0,7 C 97 % 1000,6 hPa 0,0 l/m 3,7 km/h (1 Bft) O 96 0 min 0,000 mm 0,0 UV-I 0 W/m 0,3 C 0,7 C 6,4 km/h (2 Bft) 99,15 %
07.01.2016 19:35 0,6 C 97 % 1000,6 hPa 0,0 l/m 3,5 km/h (1 Bft) O-NO 65 0 min 0,000 mm 0,0 UV-I 0 W/m 0,2 C 0,6 C 4,8 km/h (1 Bft) 100,00 %
07.01.2016 19:40 0,7 C 97 % 1000,6 hPa 0,0 l/m 3,4 km/h (1 Bft) O-NO 58 0 min 0,000 mm 0,0 UV-I 0 W/m 0,3 C 0,7 C 4,8 km/h (1 Bft) 99,13 %
07.01.2016 19:45 0,7 C 97 % 1000,8 hPa 0,0 l/m 3,9 km/h (1 Bft) O 88 0 min 0,000 mm 0,0 UV-I 0 W/m 0,3 C 0,7 C 8,0 km/h (2 Bft) 97,39 %
07.01.2016 19:50 0,7 C 97 % 1000,8 hPa 0,2 l/m 4,2 km/h (1 Bft) NO 53 0 min 0,000 mm 0,0 UV-I 0 W/m 0,3 C 0,7 C 6,4 km/h (2 Bft) 99,17 %
07.01.2016 19:55 0,6 C 97 % 1000,9 hPa 0,0 l/m 2,0 km/h (1 Bft) O-SO 123 0 min 0,000 mm 0,0 UV-I 0 W/m 0,2 C 0,6 C 4,8 km/h (1 Bft) 100,00 %
07.01.2016 20:00 0,7 C 97 % 1001,1 hPa 0,0 l/m 2,3 km/h (1 Bft) O-SO 123 0 min 0,000 mm 0,0 UV-I 0 W/m 0,3 C 0,7 C 4,8 km/h (1 Bft) 99,13 %
07.01.2016 20:05 0,6 C 97 % 1001,2 hPa 0,0 l/m 2,2 km/h (1 Bft) O-SO 123 0 min 0,000 mm 0,0 UV-I 0 W/m 0,2 C 0,6 C 3,2 km/h (1 Bft) 99,17 %
07.01.2016 20:10 0,6 C 97 % 1001,5 hPa 0,0 l/m 2,8 km/h (1 Bft) S-SW 196 0 min 0,000 mm 0,0 UV-I 0 W/m 0,2 C 0,6 C 4,8 km/h (1 Bft) 98,21 %
07.01.2016 20:15 0,6 C 97 % 1001,4 hPa 0,0 l/m 1,2 km/h (1 Bft) W 265 0 min 0,000 mm 0,0 UV-I 0 W/m 0,2 C 0,6 C 3,2 km/h (1 Bft) 98,33 %
07.01.2016 20:20 0,6 C 97 % 1001,6 hPa 0,0 l/m 1,4 km/h (1 Bft) W 265 0 min 0,000 mm 0,0 UV-I 0 W/m 0,2 C 0,6 C 3,2 km/h (1 Bft) 100,00 %
07.01.2016 20:25 0,5 C 97 % 1001,7 hPa 0,0 l/m 0,8 km/h (0 Bft) W 265 0 min 0,000 mm 0,0 UV-I 0 W/m 0,1 C 0,5 C 3,2 km/h (1 Bft) 99,13 %
07.01.2016 20:30 0,4 C 97 % 1001,8 hPa 0,0 l/m 2,0 km/h (1 Bft) W 265 0 min 0,000 mm 0,0 UV-I 0 W/m -0,0 C 0,4 C 3,2 km/h (1 Bft) 100,00 %
07.01.2016 20:35 0,4 C 97 % 1001,9 hPa 0,0 l/m 0,2 km/h (0 Bft) W 265 0 min 0,000 mm 0,0 UV-I 0 W/m -0,0 C 0,4 C 1,6 km/h (1 Bft) 98,31 %
07.01.2016 20:40 0,4 C 98 % 1001,8 hPa 0,0 l/m 0,5 km/h (0 Bft) W 265 0 min 0,000 mm 0,0 UV-I 0 W/m 0,1 C 0,4 C 1,6 km/h (1 Bft) 100,00 %
07.01.2016 20:45 0,4 C 98 % 1002,0 hPa 0,0 l/m 2,4 km/h (1 Bft) W-SW 238 0 min 0,000 mm 0,0 UV-I 0 W/m 0,1 C 0,4 C 4,8 km/h (1 Bft) 99,18 %
07.01.2016 20:50 0,4 C 98 % 1002,0 hPa 0,0 l/m 2,9 km/h (1 Bft) SW 217 0 min 0,000 mm 0,0 UV-I 0 W/m 0,1 C 0,4 C 4,8 km/h (1 Bft) 96,43 %
07.01.2016 20:55 0,4 C 98 % 1001,9 hPa 0,0 l/m 1,5 km/h (1 Bft) SW 217 0 min 0,000 mm 0,0 UV-I 0 W/m 0,1 C 0,4 C 3,2 km/h (1 Bft) 93,60 %
07.01.2016 21:00 0,4 C 98 % 1002,0 hPa 0,0 l/m 1,0 km/h (0 Bft) SW 217 0 min 0,000 mm 0,0 UV-I 0 W/m 0,1 C 0,4 C 3,2 km/h (1 Bft) 96,33 %
07.01.2016 21:05 0,4 C 98 % 1002,0 hPa 0,0 l/m 1,4 km/h (1 Bft) SW 215 0 min 0,000 mm 0,0 UV-I 0 W/m 0,1 C 0,4 C 4,8 km/h (1 Bft) 96,61 %
07.01.2016 21:10 0,4 C 98 % 1002,1 hPa 0,0 l/m 2,0 km/h (1 Bft) SW 215 0 min 0,000 mm 0,0 UV-I 0 W/m 0,1 C 0,4 C 3,2 km/h (1 Bft) 96,03 %
07.01.2016 21:15 0,4 C 98 % 1002,1 hPa 0,0 l/m 2,8 km/h (1 Bft) S 191 0 min 0,000 mm 0,0 UV-I 0 W/m 0,1 C 0,4 C 4,8 km/h (1 Bft) 98,31 %
07.01.2016 21:20 0,4 C 98 % 1002,1 hPa 0,0 l/m 1,0 km/h (0 Bft) S 191 0 min 0,000 mm 0,0 UV-I 0 W/m 0,1 C 0,4 C 3,2 km/h (1 Bft) 97,39 %
07.01.2016 21:25 0,4 C 98 % 1002,2 hPa 0,0 l/m 2,1 km/h (1 Bft) S 191 0 min 0,000 mm 0,0 UV-I 0 W/m 0,1 C 0,4 C 4,8 km/h (1 Bft) 99,10 %
07.01.2016 21:30 0,4 C 98 % 1002,2 hPa 0,0 l/m 2,5 km/h (1 Bft) S 191 0 min 0,000 mm 0,0 UV-I 0 W/m 0,1 C 0,4 C 4,8 km/h (1 Bft) 98,00 %
07.01.2016 21:35 0,4 C 98 % 1002,2 hPa 0,0 l/m 1,1 km/h (1 Bft) S 191 0 min 0,000 mm 0,0 UV-I 0 W/m 0,1 C 0,4 C 3,2 km/h (1 Bft) 99,25 %
07.01.2016 21:40 0,4 C 98 % 1002,2 hPa 0,0 l/m 1,2 km/h (1 Bft) S 191 0 min 0,000 mm 0,0 UV-I 0 W/m 0,1 C 0,4 C 3,2 km/h (1 Bft) 100,00 %
07.01.2016 21:45 0,4 C 98 % 1002,3 hPa 0,0 l/m 1,1 km/h (1 Bft) S 191 0 min 0,000 mm 0,0 UV-I 0 W/m 0,1 C 0,4 C 3,2 km/h (1 Bft) 96,52 %
07.01.2016 21:50 0,4 C 98 % 1002,5 hPa 0,0 l/m 3,1 km/h (1 Bft) S 191 0 min 0,000 mm 0,0 UV-I 0 W/m 0,1 C 0,4 C 4,8 km/h (1 Bft) 100,00 %
07.01.2016 21:55 0,4 C 98 % 1002,5 hPa 0,0 l/m 3,8 km/h (1 Bft) S 188 0 min 0,000 mm 0,0 UV-I 0 W/m 0,1 C 0,4 C 6,4 km/h (2 Bft) 100,00 %
07.01.2016 22:00 0,4 C 98 % 1002,6 hPa 0,0 l/m 3,4 km/h (1 Bft) SW 221 0 min 0,000 mm 0,0 UV-I 0 W/m 0,1 C 0,4 C 4,8 km/h (1 Bft) 100,00 %
07.01.2016 22:05 0,4 C 98 % 1002,6 hPa 0,0 l/m 2,8 km/h (1 Bft) SW 216 0 min 0,000 mm 0,0 UV-I 0 W/m 0,1 C 0,4 C 4,8 km/h (1 Bft) 99,12 %
07.01.2016 22:10 0,4 C 98 % 1002,3 hPa 0,0 l/m 1,4 km/h (1 Bft) SW 215 0 min 0,000 mm 0,0 UV-I 0 W/m 0,1 C 0,4 C 4,8 km/h (1 Bft) 100,00 %
07.01.2016 22:15 0,4 C 98 % 1002,3 hPa 0,0 l/m 1,0 km/h (0 Bft) SW 215 0 min 0,000 mm 0,0 UV-I 0 W/m 0,1 C 0,4 C 3,2 km/h (1 Bft) 100,00 %
07.01.2016 22:20 0,3 C 98 % 1002,3 hPa 0,0 l/m 0,7 km/h (0 Bft) SW 215 0 min 0,000 mm 0,0 UV-I 0 W/m 0,0 C 0,3 C 1,6 km/h (1 Bft) 98,41 %
07.01.2016 22:25 0,4 C 98 % 1002,3 hPa 0,0 l/m 0,7 km/h (0 Bft) SW 215 0 min 0,000 mm 0,0 UV-I 0 W/m 0,1 C 0,4 C 3,2 km/h (1 Bft) 99,13 %
07.01.2016 22:30 0,4 C 98 % 1002,4 hPa 0,0 l/m 1,2 km/h (1 Bft) SW 215 0 min 0,000 mm 0,0 UV-I 0 W/m 0,1 C 0,4 C 3,2 km/h (1 Bft) 99,07 %
07.01.2016 22:35 0,4 C 98 % 1002,4 hPa 0,0 l/m 1,6 km/h (1 Bft) SW 215 0 min 0,000 mm 0,0 UV-I 0 W/m 0,1 C 0,4 C 3,2 km/h (1 Bft) 99,17 %
07.01.2016 22:40 0,3 C 98 % 1002,2 hPa 0,0 l/m 1,8 km/h (1 Bft) SO 142 0 min 0,000 mm 0,0 UV-I 0 W/m 0,0 C 0,3 C 6,4 km/h (2 Bft) 99,15 %
07.01.2016 22:45 0,4 C 98 % 1002,5 hPa 0,0 l/m 0,3 km/h (0 Bft) S 169 0 min 0,000 mm 0,0 UV-I 0 W/m 0,1 C 0,4 C 1,6 km/h (1 Bft) 100,00 %
07.01.2016 22:50 0,4 C 98 % 1002,5 hPa 0,0 l/m 0,9 km/h (0 Bft) S-SO 168 0 min 0,000 mm 0,0 UV-I 0 W/m 0,1 C 0,4 C 6,4 km/h (2 Bft) 100,00 %
07.01.2016 22:55 0,4 C 98 % 1002,5 hPa 0,0 l/m 1,8 km/h (1 Bft) S-SO 159 0 min 0,000 mm 0,0 UV-I 0 W/m 0,1 C 0,4 C 4,8 km/h (1 Bft) 99,15 %
07.01.2016 23:00 0,4 C 98 % 1002,6 hPa 0,0 l/m 1,1 km/h (1 Bft) S-SO 159 0 min 0,000 mm 0,0 UV-I 0 W/m 0,1 C 0,4 C 6,4 km/h (2 Bft) 96,61 %
07.01.2016 23:05 0,3 C 98 % 1002,6 hPa 0,0 l/m 1,4 km/h (1 Bft) O-NO 58 0 min 0,000 mm 0,0 UV-I 0 W/m 0,0 C 0,3 C 6,4 km/h (2 Bft) 96,36 %
07.01.2016 23:10 0,3 C 98 % 1002,5 hPa 0,0 l/m 2,8 km/h (1 Bft) NO 56 0 min 0,000 mm 0,0 UV-I 0 W/m 0,0 C 0,3 C 8,0 km/h (2 Bft) 96,03 %
07.01.2016 23:15 0,3 C 98 % 1002,6 hPa 0,0 l/m 1,1 km/h (1 Bft) NO 56 0 min 0,000 mm 0,0 UV-I 0 W/m 0,0 C 0,3 C 3,2 km/h (1 Bft) 96,52 %
07.01.2016 23:20 0,3 C 98 % 1002,6 hPa 0,0 l/m 2,2 km/h (1 Bft) NO 55 0 min 0,000 mm 0,0 UV-I 0 W/m 0,0 C 0,3 C 6,4 km/h (2 Bft) 95,65 %
07.01.2016 23:25 0,3 C 98 % 1002,5 hPa 0,2 l/m 2,4 km/h (1 Bft) NO 55 0 min 0,000 mm 0,0 UV-I 0 W/m 0,0 C 0,3 C 4,8 km/h (1 Bft) 96,49 %
07.01.2016 23:30 0,3 C 98 % 1002,6 hPa 0,0 l/m 2,6 km/h (1 Bft) NO 55 0 min 0,000 mm 0,0 UV-I 0 W/m 0,0 C 0,3 C 4,8 km/h (1 Bft) 99,17 %
07.01.2016 23:35 0,3 C 98 % 1002,7 hPa 0,0 l/m 3,5 km/h (1 Bft) NO 52 0 min 0,000 mm 0,0 UV-I 0 W/m 0,0 C 0,3 C 4,8 km/h (1 Bft) 96,58 %
07.01.2016 23:40 0,2 C 98 % 1002,8 hPa 0,0 l/m 4,5 km/h (1 Bft) NO 36 0 min 0,000 mm 0,0 UV-I 0 W/m -0,1 C 0,2 C 9,7 km/h (2 Bft) 100,00 %
07.01.2016 23:45 0,2 C 98 % 1002,7 hPa 0,0 l/m 3,8 km/h (1 Bft) NO 46 0 min 0,000 mm 0,0 UV-I 0 W/m -0,1 C 0,2 C 8,0 km/h (2 Bft) 99,11 %
07.01.2016 23:50 0,2 C 98 % 1002,6 hPa 0,0 l/m 8,0 km/h (2 Bft) N-NO 29 0 min 0,000 mm 0,0 UV-I 0 W/m -0,1 C -1,4 C 14,5 km/h (3 Bft) 100,00 %
07.01.2016 23:55 0,2 C 98 % 1002,6 hPa 0,0 l/m 5,4 km/h (1 Bft) NO 36 0 min 0,000 mm 0,0 UV-I 0 W/m -0,1 C 0,2 C 8,0 km/h (2 Bft) 100,00 %
_ Min-Zeit 00:35 00:15 15:45 - 00:10 - - - - - - 00:30 15:45 00:10 20:55
Minimum _ -7,0 C 94 % 999,1 hPa - 0,0 km/h (0 Bft) - - - - - - -7,6 C -10,1 C 0,0 km/h (0 Bft) 93,60 %
_ Max-Zeit 17:55 12:10 08:55 12:30 15:25 - - 12:25 12:00 12:15 12:25 18:00 19:15 15:10 00:00
Maximum _ 0,7 C 98 % 1005,5 hPa 0,2 l/m 21,7 km/h
O-NO (4 Bft)
- - 5 min 0,051 mm 0,5 UV-I 190 W/m 0,4 C 0,7 C 30,6 km/h
O-NO (5 Bft)
100,00 %
Durchschnitt _ -1,3 C 97 % 1002,9 hPa #3,0 l/m 5,5 km/h (1 Bft) O-NO - #10 min. #0,229 mm 0,4 UV-I 81 W/m -1,7 C -2,8 C 9,3 km/h (2 Bft) 98,51 %